Location: Aalen
(48.8330°N, 10.1000°E)
Time: 06:44:01
(UTC+02:00)

UWE-3 - Pass Details

Date: 09 April 2023
Orbit: 576 x 670 km, 97.7° (Epoch: 29 May)

Event Time Altitude Azimuth Distance (km) Brightness Sun altitude
Rises 04:27:09 0° 13° (NNE) 2,940 ? -20.6°
Reaches altitude 10° 04:29:23 10° 13° (NNE) 2,011 ? -20.3°
Maximum altitude 04:33:46 87° 288° (WNW) 620 ? -19.8°
Enters shadow 04:35:10 42° 197° (SSW) 868 ? -19.6°
